N0DZQ Weather Reports


time (UTC)temp
F
wind
direction
speed
knots
gust
knots
rain 1hr
in
rain 24hr
in
rain mn
in
humidity
%
barometer
mb
20260906162558 76 0 0.9 4.3 0.00 0.00 0.00 82 1020.8
20260906162057 76 75 1.7 4.3 0.00 0.00 0.00 82 1020.9
20260906161612 75 86 0.0 4.3 0.00 0.00 0.00 82 1021.0
20260906161056 75 0 1.7 4.3 0.00 0.00 0.00 83 1020.9
20260906160556 74 0 0.0 3.5 0.00 0.00 0.00 84 1021.0
20260906160104 74 5 0.0 3.5 0.00 0.00 0.00 84 1021.0
20260906155621 74 319 1.7 3.5 0.00 0.00 0.00 85 1020.9
20260906155058 74 0 0.0 3.5 0.00 0.00 0.00 85 1020.8
20260906154608 73 0 0.0 1.7 0.00 0.00 0.00 88 1020.8
20260906154100 72 0 0.0 4.3 0.00 0.00 0.00 87 1020.9
20260906153602 72 0 0.9 4.3 0.00 0.00 0.00 87 1020.9
20260906153105 72 0 0.0 3.5 0.00 0.00 0.00 88 1021.0
20260906152559 72 98 0.0 7.0 0.00 0.00 0.00 88 1021.1
20260906152058 72 35 0.9 7.0 0.00 0.00 0.00 89 1021.2
20260906151606 71 0 0.0 6.1 0.00 0.00 0.00 90 1021.2
20260906151101 71 41 0.0 6.1 0.00 0.00 0.00 89 1021.1
20260906150557 71 357 1.7 6.1 0.00 0.00 0.00 89 1021.0
20260906150116 71 27 1.7 5.2 0.00 0.00 0.00 89 1021.0
20260906145600 71 0 0.9 3.5 0.00 0.01 0.00 91 1020.9
20260906145057 71 115 0.0 3.5 0.00 0.01 0.00 92 1021.0
20260906144611 70 286 1.7 3.5 0.00 0.01 0.00 92 1021.0
20260906144100 70 57 0.0 1.7 0.00 0.01 0.00 93 1021.0
20260906143559 70 0 0.0 6.1 0.00 0.01 0.00 94 1021.0
20260906143105 69 60 0.9 6.1 0.00 0.01 0.00 95 1021.0
20260906142557 69 0 0.9 4.3 0.00 0.01 0.00 96 1021.0
20260906142058 69 176 0.9 3.5 0.00 0.01 0.00 97 1021.0
20260906141630 68 0 0.0 3.5 0.00 0.01 0.00 97 1020.9
20260906141057 68 0 0.0 3.5 0.00 0.01 0.00 97 1021.0
20260906140557 68 0 0.0 3.5 0.00 0.01 0.00 98 1020.9
20260906140113 67 0 0.9 3.5 0.00 0.01 0.00 98 1020.9
20260906135601 67 140 0.0 1.7 0.00 0.01 0.00 99 1020.9
20260906135102 67 0 0.0 4.3 0.00 0.01 0.00 99 1020.7
20260906134631 67 11 0.0 4.3 0.00 0.01 0.00 99 1020.6
20260906134057 67 90 0.0 3.5 0.00 0.01 0.00 99 1020.6
20260906133600 67 0 0.0 3.5 0.00 0.01 0.00 99 1020.6
20260906133113 67 69 0.0 2.6 0.00 0.01 0.00 99 1020.6
20260906132559 67 110 0.0 2.6 0.00 0.01 0.00 99 1020.5
20260906132100 66 0 0.0 1.7 0.00 0.01 0.00 99 1020.4
20260906131624 66 0 0.0 1.7 0.00 0.01 0.00 99 1020.4
20260906131103 66 0 0.0 1.7 0.00 0.01 0.00 99 1020.4
20260906130601 66 0 0.0 2.6 0.00 0.01 0.00 99 1020.4
20260906130148 66 168 0.0 2.6 0.00 0.01 0.00 99 1020.5
20260906125600 66 0 0.0 2.6 0.00 0.01 0.00 99 1020.4
20260906125101 65 0 0.0 2.6 0.00 0.01 0.00 99 1020.4
20260906124610 65 0 0.0 1.7 0.00 0.01 0.00 99 1020.3
20260906124113 65 0 0.0 0.9 0.00 0.01 0.00 99 1020.4
20260906123557 65 67 0.0 0.9 0.00 0.01 0.00 99 1020.3
20260906123105 65 64 0.0 0.9 0.00 0.01 0.00 99 1020.3
20260906122557 64 0 0.0 0.0 0.00 0.01 0.00 99 1020.3
20260906122058 64 0 0.0 0.0 0.00 0.01 0.00 99 1020.2
20260906121610 64 0 0.0 0.0 0.00 0.01 0.00 99 1020.1
20260906121057 64 0 0.0 0.9 0.00 0.01 0.00 99 1020.1
20260906120600 64 0 0.0 0.9 0.00 0.01 0.00 99 1020.0
20260906120112 64 131 0.0 0.0 0.00 0.01 0.00 99 1020.0
20260906115600 64 0 0.0 0.0 0.00 0.01 0.00 99 1020.0
20260906115100 64 0 0.0 0.0 0.00 0.01 0.00 99 1020.0
20260906114616 64 0 0.0 0.0 0.00 0.01 0.00 99 1019.9
20260906114056 64 0 0.0 0.0 0.00 0.01 0.00 99 1019.9
20260906113556 64 0 0.0 0.0 0.00 0.01 0.00 98 1020.0
20260906113109 64 0 0.0 0.0 0.00 0.01 0.00 98 1019.9
20260906112557 64 0 0.0 0.0 0.00 0.01 0.00 98 1019.8
20260906112057 64 0 0.0 0.0 0.00 0.01 0.00 98 1019.8
20260906111609 64 0 0.0 0.0 0.00 0.01 0.00 98 1019.8
20260906111058 64 0 0.0 0.0 0.00 0.01 0.00 98 1019.7
20260906110557 64 0 0.0 0.0 0.00 0.01 0.00 98 1019.7
20260906110105 64 0 0.0 0.0 0.00 0.01 0.00 98 1019.7
20260906105556 64 0 0.0 0.0 0.00 0.01 0.00 98 1019.6
20260906105056 64 0 0.0 0.0 0.00 0.01 0.00 98 1019.5
20260906104607 64 0 0.0 0.0 0.00 0.01 0.00 98 1019.5
20260906104058 64 0 0.0 0.0 0.00 0.01 0.00 98 1019.4
20260906103557 64 0 0.0 0.0 0.00 0.01 0.00 98 1019.4
20260906103105 64 0 0.0 0.0 0.00 0.01 0.00 98 1019.5
20260906102557 64 0 0.0 0.0 0.00 0.01 0.00 98 1019.5
20260906102057 64 0 0.0 0.0 0.00 0.01 0.00 98 1019.5
20260906101604 64 0 0.0 0.0 0.00 0.01 0.00 98 1019.4
20260906101059 64 0 0.0 0.0 0.00 0.01 0.00 98 1019.4
20260906100600 65 0 0.0 0.0 0.00 0.01 0.00 98 1019.3
20260906100107 65 0 0.0 0.0 0.00 0.01 0.00 98 1019.3
20260906095559 65 0 0.0 0.0 0.00 0.01 0.00 98 1019.2
20260906095056 65 0 0.0 0.0 0.00 0.01 0.00 98 1018.9
20260906094608 65 0 0.0 0.0 0.00 0.01 0.00 98 1018.9
20260906094057 65 0 0.0 0.0 0.00 0.01 0.00 98 1018.9
20260906093558 65 0 0.0 0.0 0.00 0.01 0.00 98 1018.8
20260906093104 65 0 0.0 0.0 0.00 0.01 0.00 98 1018.8
20260906092557 65 0 0.0 0.0 0.00 0.01 0.00 98 1018.7
20260906092057 65 0 0.0 0.0 0.00 0.01 0.00 98 1018.7
20260906091605 65 0 0.0 0.0 0.00 0.01 0.00 98 1018.7
20260906091057 65 0 0.0 0.0 0.00 0.01 0.00 98 1018.8
20260906090556 65 0 0.0 0.0 0.00 0.01 0.00 98 1018.9
20260906090104 65 0 0.0 0.0 0.00 0.01 0.00 98 1018.8
20260906085600 65 0 0.0 0.0 0.00 0.01 0.00 98 1018.7
20260906085056 65 0 0.0 0.0 0.00 0.01 0.00 98 1018.7
20260906084619 65 0 0.0 0.0 0.00 0.01 0.00 98 1018.7
20260906084100 65 0 0.0 0.0 0.00 0.01 0.00 98 1018.7
20260906083557 65 0 0.0 0.0 0.00 0.01 0.00 98 1018.7
20260906083104 65 0 0.0 0.0 0.00 0.01 0.00 98 1018.7
20260906082559 65 0 0.0 0.0 0.00 0.01 0.00 98 1018.7
20260906082100 65 0 0.0 0.0 0.00 0.01 0.00 98 1018.7
20260906081606 65 0 0.0 0.0 0.00 0.01 0.00 98 1018.6
20260906081056 65 0 0.0 0.0 0.00 0.01 0.00 98 1018.6
20260906080600 65 0 0.0 0.0 0.00 0.01 0.00 98 1018.7
20260906080106 65 0 0.0 0.0 0.00 0.01 0.00 98 1018.7
20260906075559 65 0 0.0 0.0 0.00 0.01 0.00 98 1018.6
20260906075057 64 0 0.0 0.0 0.00 0.01 0.00 98 1018.8
20260906074610 64 0 0.0 0.0 0.00 0.01 0.00 98 1018.8
20260906074057 64 0 0.0 0.0 0.00 0.01 0.00 98 1018.8
20260906073557 64 0 0.0 0.0 0.00 0.01 0.00 98 1018.8
20260906073105 64 0 0.0 0.0 0.00 0.01 0.00 97 1018.8
20260906072557 65 0 0.0 0.0 0.00 0.01 0.00 98 1018.8
20260906072057 65 0 0.0 0.0 0.00 0.01 0.00 98 1018.8
20260906071606 64 0 0.0 0.0 0.00 0.01 0.00 98 1018.9
20260906071101 64 0 0.0 0.0 0.00 0.01 0.00 98 1019.1
20260906070556 64 0 0.0 0.0 0.00 0.01 0.00 97 1019.1
20260906070109 64 0 0.0 0.0 0.00 0.01 0.00 97 1019.1
20260906065557 64 0 0.0 0.0 0.00 0.01 0.00 97 1019.2
20260906065057 65 0 0.0 0.0 0.00 0.01 0.00 97 1019.2
20260906064602 65 0 0.0 0.0 0.00 0.01 0.00 97 1019.2
20260906064100 65 0 0.0 0.0 0.00 0.01 0.00 97 1019.2
20260906063556 65 0 0.0 0.0 0.00 0.01 0.00 97 1019.2
20260906063103 65 0 0.0 0.0 0.00 0.01 0.00 97 1019.2
20260906062557 65 0 0.0 0.0 0.00 0.01 0.00 97 1019.3
20260906062056 65 0 0.0 0.0 0.00 0.01 0.00 97 1019.4
20260906061629 65 0 0.0 0.0 0.00 0.01 0.00 97 1019.5
20260906061058 65 0 0.0 0.0 0.00 0.01 0.00 97 1019.5
20260906060556 65 0 0.0 0.0 0.00 0.01 0.00 97 1019.4
20260906060128 65 0 0.0 0.0 0.00 0.01 0.00 97 1019.4
20260906055556 65 0 0.0 0.0 0.00 0.01 0.00 97 1019.4
20260906055057 66 0 0.0 0.0 0.00 0.01 0.00 97 1019.4
20260906054605 66 0 0.0 0.0 0.00 0.01 0.00 97 1019.2
20260906054057 66 0 0.0 0.0 0.00 0.01 0.00 97 1019.3
20260906053557 66 0 0.0 0.0 0.00 0.01 0.00 97 1019.3
20260906053102 66 0 0.0 0.0 0.00 0.01 0.00 97 1019.4
20260906052557 66 0 0.0 0.0 0.00 0.01 0.00 97 1019.3
20260906052057 66 0 0.0 0.0 0.00 0.01 0.00 97 1019.4
20260906051609 66 0 0.0 0.0 0.00 0.01 0.00 97 1019.3
20260906051057 66 0 0.0 0.0 0.00 0.01 0.00 97 1019.4
20260906050556 66 0 0.0 0.0 0.00 0.01 0.00 97 1019.4
20260906050108 66 0 0.0 0.0 0.00 0.01 0.00 97 1019.3
20260906045603 66 0 0.0 0.0 0.00 0.01 0.01 97 1019.3
20260906045059 66 0 0.0 0.0 0.00 0.01 0.01 97 1019.2
20260906044605 66 0 0.0 0.0 0.00 0.01 0.01 97 1019.4
20260906044058 66 0 0.0 0.0 0.00 0.01 0.01 97 1019.3
20260906043600 67 0 0.0 0.0 0.00 0.01 0.01 97 1019.5
20260906043107 67 0 0.0 0.0 0.00 0.01 0.01 96 1019.5
20260906042556 67 0 0.0 0.0 0.00 0.01 0.01 97 1019.4
20260906042057 67 0 0.0 0.0 0.00 0.01 0.01 96 1019.4
20260906041605 67 0 0.0 0.0 0.00 0.01 0.01 96 1019.4
20260906041056 67 0 0.0 0.0 0.00 0.01 0.01 96 1019.4
20260906040556 67 0 0.0 0.0 0.00 0.01 0.01 96 1019.5
20260906040109 67 0 0.0 0.0 0.00 0.01 0.01 96 1019.6
20260906035557 67 0 0.0 0.0 0.00 0.01 0.01 96 1019.4
20260906035057 67 0 0.0 0.0 0.00 0.01 0.01 96 1019.4
20260906034607 67 0 0.0 0.0 0.00 0.01 0.01 96 1019.5
20260906034058 67 0 0.0 0.0 0.00 0.01 0.01 96 1019.5
20260906033556 67 0 0.0 0.0 0.00 0.01 0.01 96 1019.5
20260906033109 67 0 0.0 0.0 0.00 0.01 0.01 95 1019.6
20260906032556 67 0 0.0 0.0 0.00 0.01 0.01 95 1019.6
20260906032057 67 0 0.0 0.0 0.00 0.01 0.01 95 1019.5
20260906031605 67 0 0.0 0.0 0.00 0.01 0.01 95 1019.7
20260906031103 67 0 0.0 0.0 0.00 0.01 0.01 95 1019.7
20260906030557 67 0 0.0 0.0 0.00 0.01 0.01 95 1019.8
20260906030111 67 0 0.0 0.0 0.00 0.01 0.01 95 1019.7
20260906025559 67 0 0.0 0.0 0.00 0.01 0.01 95 1019.7
20260906025059 67 0 0.0 0.0 0.00 0.01 0.01 95 1019.9
20260906024608 67 0 0.0 0.0 0.00 0.01 0.01 95 1019.8
20260906024059 67 0 0.0 0.0 0.00 0.01 0.01 94 1019.5
20260906023557 67 0 0.0 0.0 0.00 0.01 0.01 93 1019.4
20260906023110 68 0 0.0 0.0 0.00 0.01 0.01 93 1019.2
20260906022556 68 0 0.0 0.0 0.00 0.01 0.01 93 1019.2
20260906022057 68 0 0.0 0.0 0.00 0.01 0.01 92 1019.1
20260906021613 68 0 0.0 0.0 0.00 0.01 0.01 92 1019.1
20260906021056 68 0 0.0 0.0 0.00 0.01 0.01 92 1018.7
20260906020557 68 0 0.0 0.0 0.00 0.01 0.01 91 1018.6
20260906020128 69 0 0.0 0.0 0.00 0.01 0.01 91 1018.5
20260906015557 69 0 0.0 0.0 0.00 0.01 0.01 90 1018.3
20260906015057 69 0 0.0 0.0 0.00 0.01 0.01 89 1018.2
20260906014608 70 0 0.0 0.0 0.00 0.01 0.01 89 1018.1
20260906014056 70 0 0.0 0.0 0.00 0.01 0.01 88 1017.9
20260906013558 70 0 0.0 0.0 0.00 0.01 0.01 87 1017.8
20260906013106 71 0 0.0 0.0 0.00 0.01 0.01 87 1017.8
20260906012559 71 0 0.0 0.0 0.00 0.01 0.01 86 1017.8
20260906012059 72 0 0.0 0.9 0.00 0.01 0.01 85 1017.6
20260906011608 72 0 0.0 0.9 0.00 0.01 0.01 85 1017.5
20260906011057 72 0 0.0 0.9 0.00 0.01 0.01 86 1017.1
20260906010557 72 0 0.0 0.0 0.00 0.01 0.01 86 1016.9
20260906010112 72 0 0.0 0.0 0.00 0.01 0.01 85 1016.8
20260906005558 72 0 0.0 0.0 0.00 0.01 0.01 84 1016.8
20260906005059 73 0 0.0 0.0 0.00 0.01 0.01 83 1016.8
20260906004603 74 0 0.0 0.0 0.00 0.01 0.01 82 1017.0
20260906004058 74 0 0.0 0.0 0.00 0.01 0.01 81 1016.9
20260906003558 75 0 0.0 0.0 0.00 0.01 0.01 79 1016.8
20260906003108 76 0 0.0 0.0 0.00 0.01 0.01 79 1016.9
20260906002559 76 0 0.0 0.9 0.00 0.01 0.01 78 1016.9
20260906002057 77 0 0.0 1.7 0.00 0.01 0.01 76 1016.8
20260906001606 77 0 0.0 2.6 0.00 0.01 0.01 76 1016.8
20260906001056 78 0 0.0 4.3 0.00 0.01 0.01 76 1016.8
20260906000558 78 133 0.0 4.3 0.00 0.01 0.01 75 1016.8
20260906000111 78 158 0.0 4.3 0.00 0.01 0.01 74 1016.9
20260905235557 79 0 0.0 4.3 0.00 0.01 0.01 74 1016.7
20260905235057 79 90 0.0 4.3 0.00 0.01 0.01 73 1016.7
20260905234609 79 0 0.0 4.3 0.00 0.01 0.01 73 1016.6
20260905234057 80 0 0.9 4.3 0.00 0.01 0.01 72 1016.7
20260905233600 80 0 0.0 2.6 0.00 0.01 0.01 72 1016.6
20260905233120 80 0 0.0 2.6 0.00 0.01 0.01 71 1016.6
20260905232556 80 97 0.0 3.5 0.00 0.01 0.01 72 1016.5
20260905232057 81 0 0.0 3.5 0.00 0.01 0.01 71 1016.6
20260905231605 81 94 0.0 4.3 0.00 0.01 0.01 70 1016.5
20260905231057 81 0 0.0 4.3 0.00 0.01 0.01 71 1016.4
20260905230559 82 0 0.9 7.8 0.00 0.01 0.01 70 1016.4
20260905230110 82 96 1.7 7.8 0.00 0.01 0.01 69 1016.4
20260905225556 83 115 0.0 6.1 0.00 0.01 0.01 68 1016.4
20260905225057 83 103 0.0 4.3 0.00 0.01 0.01 68 1016.4
20260905224609 84 0 0.9 4.3 0.00 0.01 0.01 68 1016.5
20260905224057 84 127 0.9 4.3 0.00 0.01 0.01 68 1016.6
20260905223556 84 115 0.9 4.3 0.00 0.01 0.01 67 1016.5
20260905223106 84 347 0.0 4.3 0.00 0.01 0.01 68 1016.6
20260905222557 84 100 0.9 4.3 0.00 0.01 0.01 67 1016.7
20260905222100 84 151 0.9 6.1 0.00 0.01 0.01 66 1016.8
20260905221605 84 50 0.9 6.1 0.00 0.01 0.01 66 1016.7
20260905221056 84 209 0.9 6.1 0.00 0.01 0.01 65 1016.7
20260905220557 84 117 1.7 6.1 0.00 0.01 0.01 66 1016.5
20260905220107 84 0 1.7 7.0 0.00 0.01 0.01 67 1016.4
20260905215557 84 134 0.0 7.0 0.00 0.01 0.01 67 1016.4
20260905215057 84 130 1.7 5.2 0.00 0.01 0.01 67 1016.4
20260905214607 84 133 0.9 5.2 0.00 0.01 0.01 68 1016.4
20260905214057 84 210 1.7 3.5 0.00 0.01 0.01 67 1016.5
20260905213558 84 60 0.0 3.5 0.00 0.01 0.01 67 1016.6
20260905213113 84 203 0.9 3.5 0.00 0.01 0.01 67 1016.7
20260905212557 84 125 0.9 6.1 0.00 0.01 0.01 68 1016.9
20260905212057 84 213 0.9 6.1 0.00 0.01 0.01 67 1017.1
20260905211612 84 75 0.0 4.3 0.00 0.01 0.01 68 1017.2
20260905211057 84 72 0.9 6.1 0.00 0.01 0.01 69 1017.4
20260905210557 84 0 0.0 6.1 0.00 0.01 0.01 70 1017.4
20260905210112 83 139 0.9 2.6 0.00 0.01 0.01 68 1017.4
20260905205559 83 0 0.0 5.2 0.00 0.01 0.01 71 1017.5
20260905205058 83 0 0.0 5.2 0.00 0.01 0.01 72 1017.6
20260905204603 83 132 0.0 3.5 0.00 0.01 0.01 70 1017.7
20260905204057 83 0 0.9 3.5 0.00 0.01 0.01 71 1017.8
20260905203601 83 0 0.0 3.5 0.00 0.01 0.01 71 1018.0
20260905203106 83 153 0.0 3.5 0.00 0.01 0.01 71 1018.0
20260905202600 83 116 0.0 3.5 0.00 0.01 0.01 70 1017.9
20260905202057 83 0 0.0 2.6 0.00 0.01 0.01 72 1018.0
20260905201607 83 335 0.0 2.6 0.00 0.01 0.01 71 1018.1
20260905201056 83 122 0.9 2.6 0.00 0.01 0.01 71 1018.1
20260905200559 82 110 0.0 4.3 0.00 0.01 0.01 71 1018.1
20260905200106 82 0 0.9 4.3 0.00 0.01 0.01 72 1018.3
20260905195558 82 0 0.9 4.3 0.00 0.01 0.01 72 1018.4
20260905195057 82 345 0.9 4.3 0.00 0.01 0.01 73 1018.5
20260905194607 82 0 0.0 4.3 0.00 0.01 0.01 71 1018.5
20260905194057 82 0 0.0 4.3 0.00 0.01 0.01 72 1018.3
20260905193556 83 49 0.0 4.3 0.00 0.01 0.01 72 1018.4
20260905193103 83 0 0.0 2.6 0.00 0.01 0.01 71 1018.4
20260905192558 83 0 0.0 2.6 0.00 0.01 0.01 73 1018.4
20260905192056 82 68 0.0 2.6 0.00 0.01 0.01 74 1018.4
20260905191603 82 68 0.0 4.3 0.00 0.01 0.01 74 1018.7
20260905191057 81 0 0.9 4.3 0.00 0.01 0.01 75 1018.6
20260905190600 81 38 0.9 2.6 0.00 0.01 0.01 73 1018.5
20260905190104 81 262 0.9 2.6 0.00 0.01 0.01 75 1018.6
20260905185600 81 0 0.9 3.5 0.00 0.01 0.01 73 1018.5
20260905185057 81 0 0.0 4.3 0.00 0.01 0.01 74 1018.7
20260905184611 82 115 0.9 4.3 0.00 0.01 0.01 72 1018.6
20260905184057 82 105 0.0 3.5 0.00 0.01 0.01 73 1018.4
20260905183557 82 105 0.0 0.9 0.00 0.01 0.01 75 1018.5
20260905183118 81 0 0.0 2.6 0.00 0.01 0.01 77 1018.6
20260905182556 80 318 0.0 4.3 0.00 0.01 0.01 78 1018.7
20260905182059 79 37 0.9 5.2 0.00 0.01 0.01 81 1018.6
20260905181609 79 89 1.7 5.2 0.00 0.01 0.01 78 1018.6
20260905181057 79 77 0.0 4.3 0.00 0.01 0.01 77 1018.6
20260905180559 78 24 0.0 3.5 0.00 0.01 0.01 80 1018.9
20260905180109 77 20 0.0 2.6 0.00 0.01 0.01 81 1018.9
20260905175558 76 0 0.0 4.3 0.00 0.01 0.01 84 1018.8
20260905175059 76 75 0.0 4.3 0.00 0.01 0.01 83 1018.8
20260905174605 76 91 0.0 3.5 0.00 0.01 0.01 82 1019.0
20260905174057 76 113 0.9 4.3 0.00 0.01 0.01 82 1019.0
20260905173557 76 0 0.9 4.3 0.00 0.01 0.01 84 1019.1
20260905173115 76 117 0.9 3.5 0.00 0.01 0.01 83 1019.2
20260905172558 76 81 0.0 2.6 0.00 0.01 0.01 84 1019.1
20260905172058 75 0 0.0 3.5 0.00 0.01 0.01 85 1019.1
20260905171605 75 114 0.9 3.5 0.00 0.01 0.01 88 1019.2
20260905171056 75 0 0.0 2.6 0.00 0.01 0.01 86 1019.2
20260905170559 74 0 0.0 0.0 0.00 0.01 0.01 87 1019.4
20260905170114 74 0 0.0 0.9 0.00 0.01 0.01 87 1019.4
20260905165559 74 0 0.0 0.9 0.00 0.01 0.01 89 1019.6
20260905165057 74 0 0.0 3.5 0.00 0.01 0.01 89 1019.7
20260905164605 73 0 0.9 3.5 0.00 0.01 0.01 89 1019.7
20260905164057 73 0 0.0 1.7 0.00 0.01 0.01 88 1019.6
20260905163600 74 56 0.0 1.7 0.00 0.01 0.01 88 1019.6
20260905163110 73 0 0.0 0.0 0.00 0.01 0.01 89 1019.6